Time,TemperatureF,DewpointF,PressureIn,WindDirection,WindDirectionDegrees,WindSpeedMPH,WindSpeedGustMPH,Humidity,HourlyPrecipIn,Conditions,Clouds,dailyrainin,SoftwareType,DateUTC
2013-01-14 00:02:00,48.7,47.3,30.00,WSW,256,1.0,5.0,95,0.00,,,0.00,meteohub,2013-01-14 05:02:00,
2013-01-14 00:03:00,48.7,47.3,30.00,WSW,256,2.0,5.0,95,0.00,,,0.00,meteohub,2013-01-14 05:03:00,
2013-01-14 00:08:00,48.7,47.3,30.00,WSW,255,1.0,3.0,95,0.00,,,0.00,meteohub,2013-01-14 05:08:00,
2013-01-14 00:13:00,48.9,47.5,29.99,SW,224,1.0,5.0,95,0.00,,,0.00,meteohub,2013-01-14 05:13:00,
2013-01-14 00:19:00,48.7,47.3,29.99,West,273,3.0,6.0,95,0.00,,,0.00,meteohub,2013-01-14 05:19:00,
2013-01-14 00:24:00,48.7,47.3,29.99,North,5,1.0,6.0,95,0.00,,,0.00,meteohub,2013-01-14 05:24:00,
2013-01-14 00:29:00,48.7,47.3,29.99,West,263,1.0,4.0,95,0.00,,,0.00,meteohub,2013-01-14 05:29:00,
2013-01-14 00:34:00,48.7,47.3,29.99,West,273,1.0,3.0,95,0.00,,,0.00,meteohub,2013-01-14 05:34:00,
2013-01-14 00:39:00,48.7,47.3,29.99,WNW,291,1.0,4.0,95,0.00,,,0.00,meteohub,2013-01-14 05:39:00,
2013-01-14 00:44:00,48.6,47.1,29.99,WNW,302,1.0,4.0,95,0.00,,,0.00,meteohub,2013-01-14 05:44:00,
2013-01-14 00:49:00,48.6,47.5,29.99,WNW,286,3.0,4.0,96,0.00,,,0.00,meteohub,2013-01-14 05:49:00,
2013-01-14 00:54:00,48.6,47.5,29.99,West,269,1.0,4.0,96,0.00,,,0.00,meteohub,2013-01-14 05:54:00,
2013-01-14 00:59:00,48.4,47.3,29.99,West,259,1.0,4.0,96,0.00,,,0.00,meteohub,2013-01-14 05:59:00,
2013-01-14 01:04:00,48.4,47.3,29.99,SW,228,1.0,4.0,96,0.00,,,0.00,meteohub,2013-01-14 06:04:00,
2013-01-14 01:09:00,48.6,47.5,29.99,West,273,0.0,3.0,96,0.00,,,0.00,meteohub,2013-01-14 06:09:00,
2013-01-14 01:14:00,48.6,47.5,29.99,West,267,2.0,5.0,96,0.00,,,0.00,meteohub,2013-01-14 06:14:00,
2013-01-14 01:19:00,48.4,47.3,29.99,West,267,0.0,5.0,96,0.00,,,0.00,meteohub,2013-01-14 06:19:00,
2013-01-14 01:24:00,48.2,46.8,29.99,West,267,0.0,5.0,95,0.00,,,0.00,meteohub,2013-01-14 06:24:00,
2013-01-14 01:29:00,48.2,47.1,29.99,West,279,0.0,2.0,96,0.00,,,0.00,meteohub,2013-01-14 06:29:00,
2013-01-14 01:34:00,48.2,47.1,29.99,WSW,238,0.0,2.0,96,0.00,,,0.00,meteohub,2013-01-14 06:34:00,
2013-01-14 01:39:00,48.2,47.1,29.99,WSW,244,0.0,2.0,96,0.00,,,0.00,meteohub,2013-01-14 06:39:00,
2013-01-14 01:44:00,48.0,46.9,29.99,WSW,244,0.0,2.0,96,0.00,,,0.00,meteohub,2013-01-14 06:44:00,
2013-01-14 01:49:00,48.0,46.9,29.99,WSW,244,0.0,2.0,96,0.00,,,0.00,meteohub,2013-01-14 06:49:00,
2013-01-14 01:54:00,48.0,46.9,29.99,WSW,244,0.0,2.0,96,0.00,,,0.00,meteohub,2013-01-14 06:54:00,
2013-01-14 01:59:00,47.8,46.8,29.99,WSW,244,0.0,2.0,96,0.00,,,0.00,meteohub,2013-01-14 06:59:00,
2013-01-14 02:04:00,48.0,46.9,29.99,WSW,244,0.0,2.0,96,0.00,,,0.00,meteohub,2013-01-14 07:04:00,
2013-01-14 02:09:00,47.8,46.8,29.99,WSW,244,0.0,2.0,96,0.00,,,0.00,meteohub,2013-01-14 07:09:00,
2013-01-14 02:14:00,47.8,46.8,29.99,WSW,257,0.0,3.0,96,0.00,,,0.00,meteohub,2013-01-14 07:14:00,
2013-01-14 02:19:00,47.8,46.8,29.99,WSW,246,1.0,3.0,96,0.00,,,0.00,meteohub,2013-01-14 07:19:00,
2013-01-14 02:24:00,47.8,46.8,29.99,WSW,246,1.0,3.0,96,0.00,,,0.00,meteohub,2013-01-14 07:24:00,
2013-01-14 02:29:00,47.8,46.8,29.99,WSW,255,2.0,3.0,96,0.00,,,0.00,meteohub,2013-01-14 07:29:00,
2013-01-14 02:34:00,47.8,46.8,29.99,WSW,253,1.0,3.0,96,0.00,,,0.00,meteohub,2013-01-14 07:34:00,
2013-01-14 02:39:00,47.8,46.8,29.99,WSW,257,0.0,3.0,96,0.00,,,0.00,meteohub,2013-01-14 07:39:00,
2013-01-14 02:44:00,47.8,46.8,29.99,West,259,1.0,3.0,96,0.00,,,0.00,meteohub,2013-01-14 07:44:00,
2013-01-14 02:49:00,47.8,46.8,29.99,WSW,257,1.0,3.0,96,0.00,,,0.00,meteohub,2013-01-14 07:49:00,
2013-01-14 02:54:00,47.8,46.8,29.99,SSW,209,0.0,3.0,96,0.00,,,0.00,meteohub,2013-01-14 07:54:00,
2013-01-14 02:59:00,47.8,46.8,29.98,WSW,253,0.0,5.0,96,0.00,,,0.00,meteohub,2013-01-14 07:59:00,
2013-01-14 03:04:00,48.0,46.9,29.98,WSW,253,3.0,5.0,96,0.00,,,0.00,meteohub,2013-01-14 08:04:00,
2013-01-14 03:09:00,48.0,46.9,29.98,West,263,2.0,6.0,96,0.00,,,0.00,meteohub,2013-01-14 08:09:00,
2013-01-14 03:14:00,47.8,46.8,29.98,WSW,243,3.0,6.0,96,0.00,,,0.00,meteohub,2013-01-14 08:14:00,
2013-01-14 03:19:00,48.0,46.9,29.97,West,261,3.0,6.0,96,0.00,,,0.00,meteohub,2013-01-14 08:19:00,
2013-01-14 03:24:00,48.0,46.9,29.97,WSW,252,0.0,6.0,96,0.00,,,0.00,meteohub,2013-01-14 08:24:00,
2013-01-14 03:29:00,48.0,46.9,29.97,West,269,2.0,6.0,96,0.00,,,0.00,meteohub,2013-01-14 08:29:00,
2013-01-14 03:34:00,48.0,46.9,29.96,West,271,2.0,6.0,96,0.00,,,0.00,meteohub,2013-01-14 08:34:00,
2013-01-14 03:39:00,47.8,46.8,29.97,West,269,2.0,6.0,96,0.00,,,0.00,meteohub,2013-01-14 08:39:00,
2013-01-14 03:45:00,47.8,46.8,29.96,SSW,201,1.0,6.0,96,0.00,,,0.00,meteohub,2013-01-14 08:45:00,
2013-01-14 03:50:00,48.0,46.9,29.96,WSW,252,1.0,6.0,96,0.00,,,0.00,meteohub,2013-01-14 08:50:00,
2013-01-14 03:55:00,47.8,46.8,29.96,WNW,283,2.0,5.0,96,0.00,,,0.00,meteohub,2013-01-14 08:55:00,
2013-01-14 04:00:00,47.8,46.8,29.96,WSW,250,1.0,5.0,96,0.00,,,0.00,meteohub,2013-01-14 09:00:00,
2013-01-14 04:05:00,48.0,46.9,29.96,West,273,2.0,6.0,96,0.00,,,0.00,meteohub,2013-01-14 09:05:00,
2013-01-14 04:10:00,48.0,46.9,29.96,WSW,245,1.0,6.0,96,0.00,,,0.00,meteohub,2013-01-14 09:10:00,
2013-01-14 04:15:00,48.0,46.9,29.96,WSW,250,2.0,7.0,96,0.00,,,0.00,meteohub,2013-01-14 09:15:00,
2013-01-14 04:20:00,47.8,46.8,29.96,WSW,238,0.0,7.0,96,0.00,,,0.00,meteohub,2013-01-14 09:20:00,
2013-01-14 04:25:00,47.8,46.8,29.96,West,277,2.0,7.0,96,0.00,,,0.00,meteohub,2013-01-14 09:25:00,
2013-01-14 04:30:00,47.8,46.8,29.96,West,264,3.0,4.0,96,0.00,,,0.00,meteohub,2013-01-14 09:30:00,
2013-01-14 04:35:00,48.0,46.9,29.96,West,267,0.0,4.0,96,0.00,,,0.00,meteohub,2013-01-14 09:35:00,
2013-01-14 04:40:00,48.0,46.9,29.96,West,259,0.0,3.0,96,0.00,,,0.00,meteohub,2013-01-14 09:40:00,
2013-01-14 04:45:00,48.0,46.9,29.95,West,273,1.0,4.0,96,0.00,,,0.00,meteohub,2013-01-14 09:45:00,
2013-01-14 04:50:00,48.0,46.9,29.95,SW,224,1.0,4.0,96,0.00,,,0.00,meteohub,2013-01-14 09:50:00,
2013-01-14 04:55:00,48.0,46.9,29.94,SSW,201,0.0,4.0,96,0.00,,,0.00,meteohub,2013-01-14 09:55:00,
2013-01-14 05:00:00,48.0,46.9,29.96,WSW,250,1.0,4.0,96,0.00,,,0.00,meteohub,2013-01-14 10:00:00,
2013-01-14 05:05:00,48.0,46.9,29.96,West,262,0.0,4.0,96,0.00,,,0.00,meteohub,2013-01-14 10:05:00,
2013-01-14 05:10:00,48.0,46.9,29.95,West,261,0.0,3.0,96,0.00,,,0.00,meteohub,2013-01-14 10:10:00,
2013-01-14 05:15:00,48.0,46.9,29.95,WNW,288,1.0,3.0,96,0.00,,,0.00,meteohub,2013-01-14 10:15:00,
2013-01-14 05:20:00,48.2,47.1,29.95,WSW,243,0.0,3.0,96,0.00,,,0.00,meteohub,2013-01-14 10:20:00,
2013-01-14 05:25:00,48.2,47.1,29.95,SSW,199,0.0,4.0,96,0.00,,,0.00,meteohub,2013-01-14 10:25:00,
2013-01-14 05:30:00,48.4,47.3,29.95,West,269,3.0,4.0,96,0.00,,,0.00,meteohub,2013-01-14 10:30:00,
2013-01-14 05:35:00,48.6,47.5,29.95,ESE,123,2.0,4.0,96,0.00,,,0.00,meteohub,2013-01-14 10:35:00,
2013-01-14 05:40:00,48.6,47.5,29.95,West,273,2.0,3.0,96,0.00,,,0.00,meteohub,2013-01-14 10:40:00,
2013-01-14 05:45:00,48.6,47.5,29.95,WSW,245,0.0,4.0,96,0.00,,,0.00,meteohub,2013-01-14 10:45:00,
2013-01-14 05:50:00,48.7,47.7,29.96,West,276,2.0,5.0,96,0.00,,,0.00,meteohub,2013-01-14 10:50:00,
2013-01-14 05:55:00,48.7,47.7,29.96,West,259,2.0,5.0,96,0.00,,,0.00,meteohub,2013-01-14 10:55:00,
2013-01-14 06:00:00,48.7,47.7,29.95,SSW,210,0.0,5.0,96,0.00,,,0.00,meteohub,2013-01-14 11:00:00,
2013-01-14 06:05:00,48.9,47.8,29.95,West,259,2.0,4.0,96,0.00,,,0.00,meteohub,2013-01-14 11:05:00,
2013-01-14 06:10:00,49.1,48.0,29.94,SW,236,0.0,4.0,96,0.00,,,0.00,meteohub,2013-01-14 11:10:00,
2013-01-14 06:15:00,49.1,48.0,29.94,SSW,211,0.0,4.0,96,0.00,,,0.00,meteohub,2013-01-14 11:15:00,
2013-01-14 06:20:00,49.3,48.2,29.94,WSW,250,0.0,4.0,96,0.00,,,0.00,meteohub,2013-01-14 11:20:00,
2013-01-14 06:25:00,49.3,48.2,29.94,SW,216,2.0,4.0,96,0.00,,,0.00,meteohub,2013-01-14 11:25:00,
2013-01-14 06:30:00,49.5,48.4,29.92,South,175,2.0,4.0,96,0.00,,,0.00,meteohub,2013-01-14 11:30:00,
2013-01-14 06:35:00,49.6,48.6,29.92,SSE,165,2.0,6.0,96,0.00,,,0.00,meteohub,2013-01-14 11:35:00,
2013-01-14 06:40:00,49.6,48.6,29.93,SW,218,0.0,6.0,96,0.00,,,0.00,meteohub,2013-01-14 11:40:00,
2013-01-14 06:46:00,49.6,48.6,29.91,WNW,286,1.0,6.0,96,0.00,,,0.00,meteohub,2013-01-14 11:46:00,
2013-01-14 06:51:00,49.8,48.7,29.91,SSW,203,5.0,5.0,96,0.00,,,0.00,meteohub,2013-01-14 11:51:00,
2013-01-14 06:56:00,49.8,48.7,29.91,SSE,156,3.0,6.0,96,0.00,,,0.00,meteohub,2013-01-14 11:56:00,
2013-01-14 07:01:00,49.8,48.7,29.91,South,190,3.0,6.0,96,0.00,,,0.00,meteohub,2013-01-14 12:01:00,
2013-01-14 07:06:00,49.8,48.7,29.88,ESE,120,4.0,6.0,96,0.00,,,0.00,meteohub,2013-01-14 12:06:00,
2013-01-14 07:11:00,49.6,48.6,29.87,SSW,207,3.0,7.0,96,0.00,,,0.00,meteohub,2013-01-14 12:11:00,
2013-01-14 07:16:00,49.6,48.6,29.86,WSW,249,3.0,7.0,96,0.00,,,0.00,meteohub,2013-01-14 12:16:00,
2013-01-14 07:21:00,49.8,48.7,29.90,NW,325,2.0,7.0,96,0.00,,,0.00,meteohub,2013-01-14 12:21:00,
2013-01-14 07:26:00,49.8,48.7,29.91,WNW,298,4.0,6.0,96,0.00,,,0.00,meteohub,2013-01-14 12:26:00,
2013-01-14 07:31:00,49.8,48.7,29.93,West,276,3.0,7.0,96,0.00,,,0.00,meteohub,2013-01-14 12:31:00,
2013-01-14 07:36:00,49.8,48.7,29.93,West,267,1.0,9.0,96,0.00,,,0.00,meteohub,2013-01-14 12:36:00,
2013-01-14 07:41:00,50.0,48.9,29.93,WNW,295,3.0,9.0,96,0.00,,,0.00,meteohub,2013-01-14 12:41:00,
2013-01-14 07:46:00,50.2,49.1,29.95,West,275,7.0,8.0,96,0.00,,,0.00,meteohub,2013-01-14 12:46:00,
2013-01-14 07:51:00,50.2,49.1,29.95,West,269,4.0,10.0,96,0.00,,,0.00,meteohub,2013-01-14 12:51:00,
2013-01-14 07:56:00,50.2,49.1,29.95,NW,313,2.0,10.0,96,0.00,,,0.00,meteohub,2013-01-14 12:56:00,
2013-01-14 08:01:00,50.2,49.1,29.95,WNW,296,2.0,10.0,96,0.00,,,0.00,meteohub,2013-01-14 13:01:00,
2013-01-14 08:06:00,50.2,49.1,29.95,WNW,290,3.0,6.0,96,0.00,,,0.00,meteohub,2013-01-14 13:06:00,
2013-01-14 08:11:00,50.2,49.1,29.94,WSW,240,2.0,6.0,96,0.00,,,0.00,meteohub,2013-01-14 13:11:00,
2013-01-14 08:16:00,50.2,49.1,29.95,WNW,295,1.0,6.0,96,0.00,,,0.00,meteohub,2013-01-14 13:16:00,
2013-01-14 08:21:00,50.4,49.3,29.95,NW,314,2.0,6.0,96,0.00,,,0.00,meteohub,2013-01-14 13:21:00,
2013-01-14 08:26:00,50.5,49.5,29.94,NW,317,0.0,5.0,96,0.00,,,0.00,meteohub,2013-01-14 13:26:00,
2013-01-14 08:31:00,50.9,49.8,29.95,West,273,3.0,5.0,96,0.00,,,0.00,meteohub,2013-01-14 13:31:00,
2013-01-14 08:36:00,50.7,49.6,29.96,WSW,256,1.0,5.0,96,0.00,,,0.00,meteohub,2013-01-14 13:36:00,
2013-01-14 08:41:00,50.9,49.8,29.96,West,266,0.0,5.0,96,0.00,,,0.00,meteohub,2013-01-14 13:41:00,
2013-01-14 08:46:00,50.9,49.8,29.97,WNW,283,2.0,4.0,96,0.00,,,0.00,meteohub,2013-01-14 13:46:00,
2013-01-14 08:51:00,51.1,50.0,29.98,WNW,286,3.0,6.0,96,0.00,,,0.00,meteohub,2013-01-14 13:51:00,
2013-01-14 08:56:00,51.1,49.6,29.98,West,277,1.0,6.0,95,0.00,,,0.00,meteohub,2013-01-14 13:56:00,
2013-01-14 09:01:00,51.3,49.8,29.98,North,11,3.0,6.0,95,0.00,,,0.00,meteohub,2013-01-14 14:01:00,
2013-01-14 09:06:00,51.4,50.0,29.98,West,281,2.0,6.0,95,0.00,,,0.00,meteohub,2013-01-14 14:06:00,
2013-01-14 09:11:00,51.6,50.2,29.98,West,277,4.0,6.0,95,0.00,,,0.00,meteohub,2013-01-14 14:11:00,
2013-01-14 09:16:00,52.0,50.5,29.99,West,269,4.0,7.0,95,0.00,,,0.00,meteohub,2013-01-14 14:16:00,
2013-01-14 09:21:00,52.0,50.5,29.99,West,279,3.0,8.0,95,0.00,,,0.00,meteohub,2013-01-14 14:21:00,
2013-01-14 09:26:00,52.2,50.5,29.99,West,267,2.0,8.0,94,0.00,,,0.00,meteohub,2013-01-14 14:26:00,
2013-01-14 09:31:00,52.3,50.7,29.99,West,281,2.0,8.0,94,0.00,,,0.00,meteohub,2013-01-14 14:31:00,
2013-01-14 09:36:00,52.3,50.7,30.00,WNW,284,2.0,6.0,94,0.00,,,0.00,meteohub,2013-01-14 14:36:00,
2013-01-14 09:41:00,52.3,50.7,30.00,WNW,303,0.0,6.0,94,0.00,,,0.00,meteohub,2013-01-14 14:41:00,
2013-01-14 09:46:00,52.5,50.5,30.01,WNW,285,1.0,5.0,93,0.00,,,0.00,meteohub,2013-01-14 14:46:00,
2013-01-14 09:51:00,52.5,50.5,30.01,NW,321,2.0,5.0,93,0.00,,,0.00,meteohub,2013-01-14 14:51:00,
2013-01-14 09:56:00,52.7,50.7,30.01,West,267,1.0,4.0,93,0.00,,,0.00,meteohub,2013-01-14 14:56:00,
2013-01-14 10:01:00,52.7,50.7,30.01,WNW,283,2.0,4.0,93,0.00,,,0.00,meteohub,2013-01-14 15:01:00,
2013-01-14 10:06:00,52.7,50.7,30.01,WNW,282,1.0,4.0,93,0.00,,,0.00,meteohub,2013-01-14 15:06:00,
2013-01-14 10:11:00,52.7,50.4,30.02,WNW,289,2.0,6.0,92,0.00,,,0.00,meteohub,2013-01-14 15:11:00,
2013-01-14 10:16:00,52.7,50.4,30.02,NW,315,4.0,6.0,92,0.00,,,0.00,meteohub,2013-01-14 15:16:00,
2013-01-14 10:22:00,52.7,50.4,30.02,West,275,7.0,7.0,92,0.00,,,0.00,meteohub,2013-01-14 15:22:00,
2013-01-14 10:27:00,52.9,50.0,30.02,WNW,297,4.0,10.0,90,0.00,,,0.00,meteohub,2013-01-14 15:27:00,
2013-01-14 10:32:00,52.9,50.0,30.02,West,267,2.0,10.0,90,0.00,,,0.00,meteohub,2013-01-14 15:32:00,
2013-01-14 10:37:00,53.1,50.2,30.02,West,267,6.0,10.0,90,0.00,,,0.00,meteohub,2013-01-14 15:37:00,
2013-01-14 10:42:00,53.1,49.8,30.01,West,278,1.0,8.0,89,0.00,,,0.00,meteohub,2013-01-14 15:42:00,
2013-01-14 10:47:00,53.1,49.6,30.01,West,279,9.0,9.0,88,0.00,,,0.00,meteohub,2013-01-14 15:47:00,
2013-01-14 10:52:00,53.1,49.6,30.01,WNW,292,4.0,10.0,88,0.00,,,0.00,meteohub,2013-01-14 15:52:00,
2013-01-14 10:57:00,53.4,49.6,30.01,WNW,299,2.0,10.0,87,0.00,,,0.00,meteohub,2013-01-14 15:57:00,
2013-01-14 11:02:00,54.0,49.8,30.01,WSW,254,6.0,10.0,86,0.00,,,0.00,meteohub,2013-01-14 16:02:00,
2013-01-14 11:07:00,54.0,49.8,30.00,WNW,283,1.0,11.0,86,0.00,,,0.00,meteohub,2013-01-14 16:07:00,
2013-01-14 11:12:00,54.1,49.8,30.00,West,271,2.0,11.0,85,0.00,,,0.00,meteohub,2013-01-14 16:12:00,
2013-01-14 11:17:00,54.3,49.8,30.00,West,273,2.0,11.0,85,0.00,,,0.00,meteohub,2013-01-14 16:17:00,
2013-01-14 11:22:00,54.7,49.6,30.00,NW,304,6.0,9.0,83,0.00,,,0.00,meteohub,2013-01-14 16:22:00,
2013-01-14 11:27:00,54.3,49.3,30.00,WSW,250,6.0,10.0,83,0.00,,,0.00,meteohub,2013-01-14 16:27:00,
2013-01-14 11:32:00,54.3,49.3,29.99,West,275,3.0,10.0,83,0.00,,,0.00,meteohub,2013-01-14 16:32:00,
2013-01-14 11:37:00,54.3,49.6,29.99,WNW,293,1.0,10.0,84,0.00,,,0.00,meteohub,2013-01-14 16:37:00,
2013-01-14 11:42:00,54.1,49.1,30.00,West,281,2.0,7.0,83,0.00,,,0.00,meteohub,2013-01-14 16:42:00,
2013-01-14 11:47:00,54.1,49.1,30.00,West,278,5.0,5.0,83,0.00,,,0.00,meteohub,2013-01-14 16:47:00,
2013-01-14 11:52:00,54.5,49.1,30.00,West,273,4.0,6.0,82,0.00,,,0.00,meteohub,2013-01-14 16:52:00,
2013-01-14 11:57:00,54.9,48.7,30.00,WNW,284,2.0,8.0,80,0.00,,,0.00,meteohub,2013-01-14 16:57:00,
2013-01-14 12:02:00,55.0,48.6,30.00,WNW,285,4.0,10.0,79,0.00,,,0.00,meteohub,2013-01-14 17:02:00,
2013-01-14 12:07:00,55.4,48.9,29.99,WSW,253,5.0,10.0,79,0.00,,,0.00,meteohub,2013-01-14 17:07:00,
2013-01-14 12:12:00,55.0,48.4,29.99,WNW,287,3.0,7.0,78,0.00,,,0.00,meteohub,2013-01-14 17:12:00,
2013-01-14 12:17:00,55.4,48.4,29.99,West,276,6.0,9.0,77,0.00,,,0.00,meteohub,2013-01-14 17:17:00,
2013-01-14 12:22:00,55.6,48.2,29.99,WSW,242,5.0,9.0,76,0.00,,,0.00,meteohub,2013-01-14 17:22:00,
2013-01-14 12:27:00,55.8,48.4,29.99,West,281,2.0,9.0,76,0.00,,,0.00,meteohub,2013-01-14 17:27:00,
2013-01-14 12:32:00,56.1,48.9,29.99,WNW,286,1.0,9.0,77,0.00,,,0.00,meteohub,2013-01-14 17:32:00,
2013-01-14 12:37:00,56.3,48.2,30.00,NNW,331,4.0,6.0,74,0.00,,,0.00,meteohub,2013-01-14 17:37:00,
2013-01-14 12:42:00,55.9,47.5,30.00,West,274,7.0,7.0,73,0.00,,,0.00,meteohub,2013-01-14 17:42:00,
2013-01-14 12:47:00,55.8,46.9,30.00,West,268,6.0,13.0,72,0.00,,,0.00,meteohub,2013-01-14 17:47:00,
2013-01-14 12:52:00,55.8,46.9,30.01,WNW,294,5.0,13.0,72,0.00,,,0.00,meteohub,2013-01-14 17:52:00,
2013-01-14 12:57:00,55.8,46.6,30.01,WNW,285,4.0,13.0,71,0.00,,,0.00,meteohub,2013-01-14 17:57:00,
2013-01-14 13:02:00,56.1,47.3,30.01,WNW,294,4.0,11.0,72,0.00,,,0.00,meteohub,2013-01-14 18:02:00,
2013-01-14 13:07:00,55.9,46.2,30.01,West,274,5.0,11.0,70,0.00,,,0.00,meteohub,2013-01-14 18:07:00,
2013-01-14 13:12:00,55.8,45.7,30.01,WNW,288,6.0,11.0,69,0.00,,,0.00,meteohub,2013-01-14 18:12:00,
2013-01-14 13:17:00,55.8,45.7,30.02,WNW,302,1.0,11.0,69,0.00,,,0.00,meteohub,2013-01-14 18:17:00,
2013-01-14 13:22:00,55.9,45.9,30.02,WNW,292,5.0,11.0,69,0.00,,,0.00,meteohub,2013-01-14 18:22:00,
2013-01-14 13:27:00,55.9,45.9,30.02,West,281,7.0,11.0,69,0.00,,,0.00,meteohub,2013-01-14 18:27:00,
2013-01-14 13:32:00,55.8,44.6,30.02,West,267,6.0,12.0,66,0.00,,,0.00,meteohub,2013-01-14 18:32:00,
2013-01-14 13:37:00,55.6,44.4,30.03,West,265,6.0,12.0,66,0.00,,,0.00,meteohub,2013-01-14 18:37:00,
2013-01-14 13:42:00,55.6,44.4,30.03,WNW,283,4.0,12.0,66,0.00,,,0.00,meteohub,2013-01-14 18:42:00,
2013-01-14 13:47:00,55.4,43.3,30.03,West,276,6.0,11.0,64,0.00,,,0.00,meteohub,2013-01-14 18:47:00,
2013-01-14 13:52:00,55.2,42.4,30.04,WNW,285,4.0,13.0,62,0.00,,,0.00,meteohub,2013-01-14 18:52:00,
2013-01-14 13:57:00,55.2,42.4,30.04,West,279,6.0,13.0,62,0.00,,,0.00,meteohub,2013-01-14 18:57:00,
2013-01-14 14:02:00,55.0,41.9,30.04,WNW,292,5.0,13.0,61,0.00,,,0.00,meteohub,2013-01-14 19:02:00,
2013-01-14 14:07:00,55.0,41.4,30.04,NW,309,2.0,13.0,60,0.00,,,0.00,meteohub,2013-01-14 19:07:00,
2013-01-14 14:12:00,55.0,41.0,30.04,WNW,296,3.0,13.0,59,0.00,,,0.00,meteohub,2013-01-14 19:12:00,
2013-01-14 14:18:00,55.2,42.1,30.05,WNW,298,2.0,10.0,61,0.00,,,0.00,meteohub,2013-01-14 19:18:00,
2013-01-14 14:23:00,55.2,42.1,30.05,NW,319,3.0,10.0,61,0.00,,,0.00,meteohub,2013-01-14 19:23:00,
2013-01-14 14:27:00,55.0,39.2,30.05,West,279,5.0,10.0,55,0.00,,,0.00,meteohub,2013-01-14 19:27:00,
2013-01-14 14:33:00,54.9,38.1,30.06,WNW,298,3.0,9.0,53,0.00,,,0.00,meteohub,2013-01-14 19:33:00,
2013-01-14 14:38:00,54.5,37.8,30.07,WNW,282,4.0,9.0,53,0.00,,,0.00,meteohub,2013-01-14 19:38:00,
2013-01-14 14:43:00,54.3,37.0,30.07,WNW,296,4.0,10.0,52,0.00,,,0.00,meteohub,2013-01-14 19:43:00,
2013-01-14 14:48:00,54.1,37.4,30.07,WNW,290,5.0,10.0,53,0.00,,,0.00,meteohub,2013-01-14 19:48:00,
2013-01-14 14:53:00,54.0,37.2,30.08,WNW,290,2.0,8.0,53,0.00,,,0.00,meteohub,2013-01-14 19:53:00,
2013-01-14 14:58:00,53.8,37.0,30.07,West,274,4.0,10.0,53,0.00,,,0.00,meteohub,2013-01-14 19:58:00,
2013-01-14 15:03:00,53.4,36.7,30.08,WNW,295,3.0,10.0,53,0.00,,,0.00,meteohub,2013-01-14 20:03:00,
2013-01-14 15:08:00,53.2,37.0,30.08,WNW,297,2.0,9.0,54,0.00,,,0.00,meteohub,2013-01-14 20:08:00,
2013-01-14 15:13:00,53.1,36.0,30.08,West,261,5.0,9.0,52,0.00,,,0.00,meteohub,2013-01-14 20:13:00,
2013-01-14 15:18:00,52.9,35.2,30.09,WNW,284,4.0,8.0,51,0.00,,,0.00,meteohub,2013-01-14 20:18:00,
2013-01-14 15:23:00,52.5,33.4,30.09,WNW,291,4.0,6.0,48,0.00,,,0.00,meteohub,2013-01-14 20:23:00,
2013-01-14 15:28:00,52.3,31.1,30.10,WNW,286,5.0,8.0,44,0.00,,,0.00,meteohub,2013-01-14 20:28:00,
2013-01-14 15:33:00,51.8,30.6,30.11,WNW,294,5.0,10.0,44,0.00,,,0.00,meteohub,2013-01-14 20:33:00,
2013-01-14 15:38:00,51.4,31.3,30.11,WNW,301,4.0,11.0,46,0.00,,,0.00,meteohub,2013-01-14 20:38:00,
2013-01-14 15:43:00,51.3,31.1,30.10,WNW,297,5.0,11.0,46,0.00,,,0.00,meteohub,2013-01-14 20:43:00,
2013-01-14 15:48:00,51.1,32.0,30.10,NW,304,5.0,11.0,48,0.00,,,0.00,meteohub,2013-01-14 20:48:00,
2013-01-14 15:53:00,50.5,31.6,30.10,WNW,290,2.0,10.0,48,0.00,,,0.00,meteohub,2013-01-14 20:53:00,
2013-01-14 15:58:00,50.4,31.5,30.11,WNW,296,3.0,10.0,48,0.00,,,0.00,meteohub,2013-01-14 20:58:00,
2013-01-14 16:03:00,50.2,30.2,30.11,West,279,5.0,9.0,46,0.00,,,0.00,meteohub,2013-01-14 21:03:00,
2013-01-14 16:08:00,49.6,28.6,30.11,WNW,284,3.0,10.0,44,0.00,,,0.00,meteohub,2013-01-14 21:08:00,
2013-01-14 16:13:00,49.5,27.9,30.12,WNW,299,3.0,10.0,43,0.00,,,0.00,meteohub,2013-01-14 21:13:00,
2013-01-14 16:18:00,49.3,28.2,30.12,NW,315,2.0,9.0,44,0.00,,,0.00,meteohub,2013-01-14 21:18:00,
2013-01-14 16:23:00,48.9,28.6,30.12,NW,315,2.0,9.0,45,0.00,,,0.00,meteohub,2013-01-14 21:23:00,
2013-01-14 16:28:00,48.6,29.3,30.12,WNW,294,3.0,5.0,47,0.00,,,0.00,meteohub,2013-01-14 21:28:00,
2013-01-14 16:33:00,48.4,29.1,30.12,NW,317,3.0,5.0,47,0.00,,,0.00,meteohub,2013-01-14 21:33:00,
2013-01-14 16:38:00,48.2,30.0,30.12,NW,319,4.0,5.0,49,0.00,,,0.00,meteohub,2013-01-14 21:38:00,
2013-01-14 16:43:00,48.0,29.3,30.12,NW,315,3.0,5.0,48,0.00,,,0.00,meteohub,2013-01-14 21:43:00,
2013-01-14 16:48:00,47.8,30.0,30.12,WNW,302,2.0,5.0,50,0.00,,,0.00,meteohub,2013-01-14 21:48:00,
2013-01-14 16:53:00,47.7,30.0,30.12,WNW,302,3.0,7.0,50,0.00,,,0.00,meteohub,2013-01-14 21:53:00,
2013-01-14 16:58:00,47.1,30.4,30.13,NW,304,2.0,7.0,52,0.00,,,0.00,meteohub,2013-01-14 21:58:00,
2013-01-14 17:03:00,46.9,31.1,30.13,WNW,303,1.0,6.0,54,0.00,,,0.00,meteohub,2013-01-14 22:03:00,
2013-01-14 17:08:00,46.8,30.6,30.13,WNW,289,2.0,6.0,53,0.00,,,0.00,meteohub,2013-01-14 22:08:00,
2013-01-14 17:13:00,46.8,30.6,30.13,NW,321,2.0,4.0,53,0.00,,,0.00,meteohub,2013-01-14 22:13:00,
2013-01-14 17:18:00,46.6,30.4,30.13,NNW,329,1.0,3.0,53,0.00,,,0.00,meteohub,2013-01-14 22:18:00,
2013-01-14 17:23:00,46.0,30.4,30.13,NW,316,2.0,3.0,54,0.00,,,0.00,meteohub,2013-01-14 22:23:00,
2013-01-14 17:28:00,45.9,30.6,30.14,WNW,284,1.0,3.0,55,0.00,,,0.00,meteohub,2013-01-14 22:28:00,
2013-01-14 17:33:00,45.3,30.6,30.14,WNW,284,0.0,3.0,56,0.00,,,0.00,meteohub,2013-01-14 22:33:00,
2013-01-14 17:38:00,45.0,30.6,30.14,WNW,284,0.0,3.0,57,0.00,,,0.00,meteohub,2013-01-14 22:38:00,
2013-01-14 17:43:00,44.2,30.4,30.13,WNW,284,0.0,3.0,58,0.00,,,0.00,meteohub,2013-01-14 22:43:00,
2013-01-14 17:48:00,44.4,31.5,30.13,WNW,291,0.0,2.0,60,0.00,,,0.00,meteohub,2013-01-14 22:48:00,
2013-01-14 17:53:00,44.1,31.1,30.13,WNW,291,1.0,3.0,60,0.00,,,0.00,meteohub,2013-01-14 22:53:00,
2013-01-14 17:58:00,43.2,31.5,30.14,WNW,291,0.0,3.0,63,0.00,,,0.00,meteohub,2013-01-14 22:58:00,
2013-01-14 18:03:00,43.0,31.3,30.13,WNW,291,1.0,3.0,63,0.00,,,0.00,meteohub,2013-01-14 23:03:00,
2013-01-14 18:08:00,43.2,31.8,30.13,WNW,290,0.0,2.0,64,0.00,,,0.00,meteohub,2013-01-14 23:08:00,
2013-01-14 18:13:00,43.0,31.3,30.13,NW,306,2.0,2.0,63,0.00,,,0.00,meteohub,2013-01-14 23:13:00,
2013-01-14 18:18:00,42.6,32.7,30.13,NW,307,1.0,2.0,68,0.00,,,0.00,meteohub,2013-01-14 23:18:00,
2013-01-14 18:23:00,41.7,32.7,30.14,NW,306,2.0,3.0,70,0.00,,,0.00,meteohub,2013-01-14 23:23:00,
2013-01-14 18:28:00,41.7,32.4,30.14,NW,306,1.0,3.0,69,0.00,,,0.00,meteohub,2013-01-14 23:28:00,
2013-01-14 18:33:00,42.4,30.7,30.15,WNW,282,2.0,3.0,63,0.00,,,0.00,meteohub,2013-01-14 23:33:00,
2013-01-14 18:38:00,43.2,31.1,30.14,WNW,294,2.0,3.0,62,0.00,,,0.00,meteohub,2013-01-14 23:38:00,
2013-01-14 18:44:00,43.2,31.1,30.14,NW,317,2.0,3.0,62,0.00,,,0.00,meteohub,2013-01-14 23:44:00,
2013-01-14 18:49:00,43.2,31.1,30.15,WNW,290,3.0,3.0,62,0.00,,,0.00,meteohub,2013-01-14 23:49:00,
2013-01-14 18:54:00,43.3,30.7,30.15,NW,306,2.0,4.0,61,0.00,,,0.00,meteohub,2013-01-14 23:54:00,
2013-01-14 18:59:00,43.3,30.7,30.16,West,281,1.0,4.0,61,0.00,,,0.00,meteohub,2013-01-14 23:59:00,
2013-01-14 19:04:00,43.3,30.7,30.17,NW,313,3.0,4.0,61,0.00,,,0.00,meteohub,2013-01-15 00:04:00,
2013-01-14 19:09:00,43.3,30.7,30.17,West,279,4.0,4.0,61,0.00,,,0.00,meteohub,2013-01-15 00:09:00,
2013-01-14 19:14:00,43.3,30.4,30.16,NW,307,2.0,6.0,60,0.00,,,0.00,meteohub,2013-01-15 00:14:00,
2013-01-14 19:19:00,43.2,30.6,30.16,WNW,302,2.0,7.0,61,0.00,,,0.00,meteohub,2013-01-15 00:19:00,
2013-01-14 19:24:00,43.0,30.4,30.15,WNW,302,2.0,7.0,61,0.00,,,0.00,meteohub,2013-01-15 00:24:00,
2013-01-14 19:29:00,43.0,30.0,30.16,WNW,301,2.0,4.0,60,0.00,,,0.00,meteohub,2013-01-15 00:29:00,
2013-01-14 19:34:00,42.8,30.2,30.15,NNW,333,1.0,5.0,61,0.00,,,0.00,meteohub,2013-01-15 00:34:00,
2013-01-14 19:39:00,42.6,30.6,30.17,NW,321,4.0,5.0,62,0.00,,,0.00,meteohub,2013-01-15 00:39:00,
2013-01-14 19:44:00,42.6,30.6,30.17,WNW,303,1.0,5.0,62,0.00,,,0.00,meteohub,2013-01-15 00:44:00,
2013-01-14 19:49:00,42.6,30.6,30.18,WNW,300,3.0,6.0,62,0.00,,,0.00,meteohub,2013-01-15 00:49:00,
2013-01-14 19:54:00,42.4,30.0,30.18,NW,312,3.0,6.0,61,0.00,,,0.00,meteohub,2013-01-15 00:54:00,
2013-01-14 19:59:00,42.4,30.4,30.19,NW,309,5.0,5.0,62,0.00,,,0.00,meteohub,2013-01-15 00:59:00,
2013-01-14 20:04:00,42.4,30.4,30.18,NW,317,2.0,7.0,62,0.00,,,0.00,meteohub,2013-01-15 01:04:00,
2013-01-14 20:09:00,42.3,30.2,30.19,WNW,284,5.0,7.0,62,0.00,,,0.00,meteohub,2013-01-15 01:09:00,
2013-01-14 20:14:00,42.3,30.2,30.19,WNW,288,5.0,6.0,62,0.00,,,0.00,meteohub,2013-01-15 01:14:00,
2013-01-14 20:19:00,42.3,30.6,30.19,NW,324,2.0,6.0,63,0.00,,,0.00,meteohub,2013-01-15 01:19:00,
2013-01-14 20:24:00,42.1,30.0,30.19,WNW,282,4.0,6.0,62,0.00,,,0.00,meteohub,2013-01-15 01:24:00,
2013-01-14 20:29:00,41.9,29.8,30.20,NW,308,5.0,6.0,62,0.00,,,0.00,meteohub,2013-01-15 01:29:00,
2013-01-14 20:34:00,41.7,30.0,30.20,NNW,337,2.0,7.0,63,0.00,,,0.00,meteohub,2013-01-15 01:34:00,
2013-01-14 20:39:00,41.7,30.0,30.20,West,275,5.0,7.0,63,0.00,,,0.00,meteohub,2013-01-15 01:39:00,
2013-01-14 20:44:00,41.5,29.5,30.20,NW,316,3.0,7.0,62,0.00,,,0.00,meteohub,2013-01-15 01:44:00,
2013-01-14 20:49:00,41.5,29.5,30.21,West,272,3.0,7.0,62,0.00,,,0.00,meteohub,2013-01-15 01:49:00,
2013-01-14 20:54:00,41.4,30.0,30.21,NNW,335,5.0,7.0,64,0.00,,,0.00,meteohub,2013-01-15 01:54:00,
2013-01-14 20:59:00,41.4,29.7,30.21,West,273,3.0,7.0,63,0.00,,,0.00,meteohub,2013-01-15 01:59:00,
2013-01-14 21:04:00,41.2,30.0,30.21,WNW,300,2.0,6.0,64,0.00,,,0.00,meteohub,2013-01-15 02:04:00,
2013-01-14 21:09:00,41.0,29.8,30.21,WNW,287,2.0,6.0,64,0.00,,,0.00,meteohub,2013-01-15 02:09:00,
2013-01-14 21:15:00,40.8,29.7,30.21,NW,315,2.0,6.0,64,0.00,,,0.00,meteohub,2013-01-15 02:15:00,
2013-01-14 21:20:00,40.6,29.5,30.19,WNW,291,1.0,5.0,64,0.00,,,0.00,meteohub,2013-01-15 02:20:00,
2013-01-14 21:25:00,40.5,29.7,30.19,WNW,299,2.0,5.0,65,0.00,,,0.00,meteohub,2013-01-15 02:25:00,
2013-01-14 21:30:00,40.5,29.7,30.20,NNW,328,2.0,5.0,65,0.00,,,0.00,meteohub,2013-01-15 02:30:00,
2013-01-14 21:35:00,40.3,29.5,30.20,WNW,285,1.0,5.0,65,0.00,,,0.00,meteohub,2013-01-15 02:35:00,
2013-01-14 21:40:00,40.3,29.5,30.20,WNW,286,3.0,5.0,65,0.00,,,0.00,meteohub,2013-01-15 02:40:00,
2013-01-14 21:45:00,40.1,29.3,30.20,NW,325,1.0,7.0,65,0.00,,,0.00,meteohub,2013-01-15 02:45:00,
2013-01-14 21:50:00,39.9,29.1,30.21,WNW,290,3.0,7.0,65,0.00,,,0.00,meteohub,2013-01-15 02:50:00,
2013-01-14 21:55:00,39.9,29.5,30.21,WNW,296,3.0,7.0,66,0.00,,,0.00,meteohub,2013-01-15 02:55:00,
2013-01-14 22:00:00,39.7,28.9,30.22,West,281,4.0,5.0,65,0.00,,,0.00,meteohub,2013-01-15 03:00:00,
2013-01-14 22:05:00,39.7,29.3,30.22,WNW,283,2.0,5.0,66,0.00,,,0.00,meteohub,2013-01-15 03:05:00,
2013-01-14 22:10:00,39.7,28.9,30.21,NNW,327,2.0,5.0,65,0.00,,,0.00,meteohub,2013-01-15 03:10:00,
2013-01-14 22:15:00,39.6,28.8,30.22,WNW,301,2.0,5.0,65,0.00,,,0.00,meteohub,2013-01-15 03:15:00,
2013-01-14 22:20:00,39.6,29.1,30.22,NW,311,3.0,5.0,66,0.00,,,0.00,meteohub,2013-01-15 03:20:00,
2013-01-14 22:25:00,39.4,28.9,30.22,WNW,298,5.0,5.0,66,0.00,,,0.00,meteohub,2013-01-15 03:25:00,
2013-01-14 22:30:00,39.4,28.9,30.24,NW,319,2.0,4.0,66,0.00,,,0.00,meteohub,2013-01-15 03:30:00,
2013-01-14 22:35:00,39.4,28.9,30.24,West,275,4.0,6.0,66,0.00,,,0.00,meteohub,2013-01-15 03:35:00,
2013-01-14 22:40:00,39.2,28.8,30.24,WNW,301,2.0,6.0,66,0.00,,,0.00,meteohub,2013-01-15 03:40:00,
2013-01-14 22:45:00,39.0,28.9,30.24,NW,304,2.0,6.0,67,0.00,,,0.00,meteohub,2013-01-15 03:45:00,
2013-01-14 22:50:00,39.0,28.9,30.24,WNW,296,2.0,5.0,67,0.00,,,0.00,meteohub,2013-01-15 03:50:00,
2013-01-14 22:55:00,38.8,28.8,30.24,NW,310,2.0,5.0,67,0.00,,,0.00,meteohub,2013-01-15 03:55:00,
2013-01-14 23:00:00,38.8,28.8,30.24,WNW,301,1.0,5.0,67,0.00,,,0.00,meteohub,2013-01-15 04:00:00,
2013-01-14 23:05:00,38.8,28.8,30.24,WNW,302,2.0,5.0,67,0.00,,,0.00,meteohub,2013-01-15 04:05:00,
2013-01-14 23:10:00,38.7,28.6,30.25,WNW,288,3.0,5.0,67,0.00,,,0.00,meteohub,2013-01-15 04:10:00,
2013-01-14 23:15:00,38.7,28.6,30.25,West,275,3.0,5.0,67,0.00,,,0.00,meteohub,2013-01-15 04:15:00,
2013-01-14 23:20:00,38.7,28.6,30.25,WNW,290,3.0,6.0,67,0.00,,,0.00,meteohub,2013-01-15 04:20:00,
2013-01-14 23:25:00,38.7,28.6,30.25,WNW,286,2.0,6.0,67,0.00,,,0.00,meteohub,2013-01-15 04:25:00,
2013-01-14 23:30:00,38.7,28.6,30.25,WNW,286,3.0,6.0,67,0.00,,,0.00,meteohub,2013-01-15 04:30:00,
2013-01-14 23:35:00,38.7,28.6,30.25,WNW,291,2.0,5.0,67,0.00,,,0.00,meteohub,2013-01-15 04:35:00,
2013-01-14 23:40:00,38.5,28.4,30.25,WNW,290,2.0,5.0,67,0.00,,,0.00,meteohub,2013-01-15 04:40:00,
2013-01-14 23:45:00,38.5,28.0,30.24,WNW,292,1.0,6.0,66,0.00,,,0.00,meteohub,2013-01-15 04:45:00,
2013-01-14 23:50:00,38.5,28.4,30.24,NNW,327,2.0,6.0,67,0.00,,,0.00,meteohub,2013-01-15 04:50:00,
2013-01-14 23:55:00,38.3,28.2,30.25,West,279,5.0,6.0,67,0.00,,,0.00,meteohub,2013-01-15 04:55:00,